{"data":{"norad_id":52585,"intl_designator":"2022-051BB","name":"STARLINK-3906","alt_names":[],"object_type":"PAYLOAD","status":"ACTIVE","operator":null,"country":"US","launch_date":"2022-05-13","launch_site_code":"AFWTR","launch_vehicle":null,"mission":null,"orbit_class":"UNKNOWN","rcs_meters":null,"size_class":null,"mass_kg":null,"dimensions":null,"purposes":["comms"],"wikipedia_slug":null,"has_3d_model":false,"image_url":null,"decayed_at":null,"tle_current":{"epoch":"2026-05-25T05:35:30.787872Z","epoch_age_seconds":48301,"freshness":"FRESH","line1":"1 52585U 22051BB  26145.23299523  .00001252  00000+0  96709-4 0  9992","line2":"2 52585  53.2122 135.4660 0001150  80.2373 279.8749 15.08848453223141","mean_motion":15.08848453,"eccentricity":0.000115,"inclination_deg":53.2122,"raan_deg":135.466,"arg_perigee_deg":80.2373,"mean_anomaly_deg":279.8749,"bstar":9.6709e-5,"rev_number":22314,"period_min":95.437020009325,"perigee_km":538.92199837196,"apogee_km":540.51310491884,"semimajor_km":6917.8545516454,"source":"CELESTRAK","updated_at":"2026-05-25T13:38:17.195387Z"}}}